TJS-10

Last updated on Thu Jul 03 2025 00:02:49 GMT+0000 (Coordinated Universal Time)

1 58204U 23169A 25183.75469509 .00000009 00000+0 00000+0 0 9991 2 58204 1.6417 84.8082 0001086 135.6622 145.2393 1.00270262 6171
UTC large
Height (km)
Speed (km/s)
/
Latitude / Longitude
Inclination (degrees)
Orbital Period (minutes)
Azimuth
Elevation
Range (km)
Doppler Factor

Next 0 passes for location: London (51.5072 / 0.1276)

Sorry there are no passes over London.